Simultaneous Nadir Overpasses (SNOs) Predictions

Prediction of SNOs between NOAA-20 and AQUA Satellite Orbit:

Table of predicted SNOs for the next 14.0 days since TLE Epoch: 7/26/2025
Index Date (NOAA-20) Time (NOAA-20) Lat,Lon (NOAA-20) SZA (NOAA-20 ) Date (AQUA) Time (AQUA) Lat,Lon (AQUA) SZA (AQUA ) Distance(km) Time Diff (sec)
1 07/26/2025 09:53:43 -81.29, 146.26 112.55 07/26/2025 09:54:30 -81.28, 146.14 112.56 2.16 47
2 07/26/2025 10:44:28 81.29, -46.33 67.45 07/26/2025 10:43:48 81.28, -46.34 67.47 1.18 40
3 07/28/2025 19:24:39 -81.29, 3.46 112.00 07/28/2025 19:25:22 -81.28, 3.49 112.03 0.76 43
4 07/28/2025 20:15:23 81.28, 171.23 67.95 07/28/2025 20:14:39 81.29, 171.39 67.96 2.84 44
5 07/31/2025 04:55:34 -81.28,-138.98 111.47 07/31/2025 04:56:13 -81.29,-139.01 111.49 0.71 39
6 07/31/2025 05:46:19 81.28, 28.37 68.54 07/31/2025 05:45:31 81.28, 28.49 68.55 2.02 48
7 08/02/2025 14:26:30 -81.29, 78.17 110.86 08/02/2025 14:27:04 -81.29, 78.26 110.89 1.54 34
8 08/02/2025 15:17:14 81.28,-114.13 69.10 08/02/2025 15:16:22 81.28,-114.26 69.15 2.33 52
9 08/04/2025 23:57:24 -81.28, -64.33 110.27 08/04/2025 23:57:53 -81.29, -64.33 110.29 0.49 29
10 08/05/2025 00:48:09 81.28, 102.96 69.75 08/05/2025 00:47:11 81.28, 103.15 69.75 3.20 58
11 08/07/2025 09:28:20 -81.29, 152.76 109.60 08/07/2025 09:28:43 -81.28, 152.85 109.63 1.63 23



Historial Predications of SNOs between NOAA-20 and AQUA
